Simultaneous Nadir Overpasses (SNOs) Predictions

Prediction of SNOs between GOES-15 and METOP-C Satellite Orbit:

Table of predicted SNOs for the next 14.0 days since TLE Epoch: 9/18/2022
Index Date Time (GOES-15) GOES-15 Lat,Lon METOP-C Lat,Lon Distance(km) Time Diff (sec)
1 09/18/2022 17:46:48 -0.23,-127.79 -1.08,-123.99 433.41 80
2 09/20/2022 06:05:49 0.26,-127.80 0.08,-128.59 90.35 80
3 09/21/2022 05:45:08 0.24,-127.83 1.18,-123.59 482.32 80
4 09/22/2022 18:01:18 -0.26,-127.91 -0.22,-128.16 28.15 80
5 09/25/2022 06:02:18 0.27,-127.95 0.33,-127.77 21.47 80
6 09/26/2022 18:18:27 -0.29,-128.02 0.69,-132.32 490.80 80
7 09/27/2022 18:00:27 -0.28,-128.05 -0.42,-127.33 81.94 80
8 09/29/2022 06:19:27 0.29,-128.06 -0.58,-131.93 441.04 80
9 09/30/2022 05:56:07 0.27,-128.08 0.53,-126.93 130.45 80
10 10/01/2022 18:14:56 -0.29,-128.12 0.47,-131.49 383.91 80
